IRIDIUM 33 DEB, 35846

Orbit data source: Space-Track

IRIDIUM 33 DEB, 35846 is space debris in LEO originally from a launch on Sun, 14 Sep 1997 UTC launched from the Tyuratam Missile And Space Complex (TTMTR). The debris from Iridium 33, an American commercial communications satellite, has been tracked extensively since its accidental collision with the defunct Russian satellite Cosmos 2251 in 2009. This event, occurring at high speed in low Earth orbit (LEO), generated thousands of pieces of space debris, significantly increasing the risk of further collisions. The Iridium 33 debris cloud has impacted space traffic management and orbital debris mitigation strategies, making it a subject of ongoing study in space situational awareness.

Loading next visibility...
Identifier
35846, 1997-051SW
Orbit
LEO
Country
Flag of USUS
Related business
Manufacturer
Unknown
Mission
Spacecraft
Bus & Motor
Unknown
Mass
Unknown
Launch date (UTC)
1997-09-14 (28 years ago)
Launch vehicle
Unknown
Launch site
Tyuratam Missile And Space Complex (TTMTR)
Object type
Payload
Rocket body
Debris
Shape & HBR
Unknown shape, 0.1 m
Radar Cross Section
Small (<0.1 m²)

Expand to show TLE details & history
Last TLE update: 2 days ago

TLE from 2 days ago
0 IRIDIUM 33 DEB
1 35846U 97051SW  25305.78601673  .00002819  00000-0  83756-3 0  9993
2 35846  86.3722  76.3109 0016351 314.2441  45.7416 14.42878937707382
Epoch: 2025-11-01T18:51Z
TLE epoch observation values (Epoch: 2025-11-01T18:51:51.845Z)
Latitude
-0.00006°
Longitude
112.03377°
Altitude
743.94 km
Speed
7.487 km/s
True Right ascension
05h 05m 14s
True Declination
0° 00' 00"
Sunlit
Object was in full shadow at epoch
Visualization orbit readout
Latitude
Unknown
Longitude
Unknown
Altitude
Unknown
Speed
Unknown
Apparent Right ascension
Unknown
Apparent Declination
Unknown
Sunlit
N/A
Visualization observer readout
Local Sidereal Time
14:23:06
Azimuth
Unknown
Elevation
Unknown
Doppler factor
Unknown
Orbital elements
Apogee altitude
757.604 km
Perigee altitude
734.306 km
Semi-major axis
7,124.092 km
Eccentricity
0.00164
Inclination
86.3722°
RAAN
76.3109°
Arg. of periapsis
314.2441°
True anomaly
45.87598°
Mean anomaly
45.7416°
Eccentric anomaly
45.80877°
Mean motion
3.60952 °/min
Orbital period
99.74 mins
BSTAR
0.00083756
Loading maneuver chart data...
Computing Atmospheric mass density...

Documentation

Showing up to 5 results
|